Location: Nairn
(57.5833°N, 3.8667°W)
Time: 20:25:18
(UTC+00:00)

Tiros 1 - Pass Details

Date: 27 November 2020
Orbit: 630 x 663 km, 48.4° (Epoch: 22 January)

Event Time Altitude Azimuth Distance (km) Brightness Sun altitude
Rises 17:41:24 0° 232° (SW) 2,988 11.9 -15.0°
Reaches altitude 10° 17:44:07 10° 219° (SW) 2,074 10.6 -15.4°
Maximum altitude 17:47:55 24° 166° (SSE) 1,361 8.8 -15.8°
Enters shadow 17:50:30 16° 124° (SE) 1,721 9.0 -16.2°
Drops below altitude 10° 17:51:43 10° 113° (ESE) 2,063 - -16.3°
Sets 17:54:23 0° 100° (E) 2,970 - -16.7°
